Regional Weather Roundup
Issued by NWS

Home | Current Version | Previous Version | Text Only | Print | Product List | Glossary Off
Versions: 1 2 3 4 5 6 7 8 9 10 11 12 13 14 15 16 17 18 19 20 21 22 23 24 25 26 27 28 29 30 31 32 33 34 35 36 37 38 39 40 41 42 43 44 45 46 47 48 49 50

000
ASUS43 KDTX 212110
RWRMI
MICHIGAN HOURLY REGIONAL WEATHER ROUNDUP
NATIONAL WEATHER SERVICE DETROIT/PONTIAC MI
500 PM EDT TUE OCT 21 2014

NOTE: "FAIR" INDICATES FEW OR NO CLOUDS BELOW 12,000 FEET WITH NO
SIGNIFICANT WEATHER AND/OR OBSTRUCTION TO VISIBILITY.

MIZ047>049-052>055-059>063-066>070-074>076-081>083-212200-
SOUTHEAST LOWER MICHIGAN

CITY           SKY/WX    TMP DP  RH WIND       PRES   REMARKS
ADRIAN         CLOUDY    46  36  68 NE17G29   30.13R
ALMA           MOSUNNY   51  33  50 N9        30.14S
ANN ARBOR      CLOUDY    45  36  70 N14G23    30.12R
BAD AXE        CLOUDY    43  37  79 N10G22    30.15R
DETROIT CITY   CLOUDY    48  38  68 N10       30.10R
DETROIT        CLOUDY    46  37  71 NW14G23   30.11R
FLINT          CLOUDY    46  36  68 N20G28    30.15R
GROSSE ILE     CLOUDY    46  39  76 N12G22    30.08R
HILLSDALE      CLOUDY    47  38  69 N9        30.12R
HOWELL         CLOUDY    43  35  74 N8G17     30.13R

CITY           SKY/WX    TMP DP  RH WIND       PRES   REMARKS
JACKSON        CLOUDY    46  37  71 N10G16    30.13R
LAMBERTVILLE   CLOUDY    46  37  71 N6        30.11R
LANSING        CLOUDY    47  36  65 N10       30.15R
LAPEER         NOT AVBL
MASON          CLOUDY    45  36  70 N9        30.14S
MONROE         CLOUDY    46  39  76 NW13G20   30.09R
MT. CLEMENS    CLOUDY    45  40  83 N20G28    30.06R
PONTIAC        PTSUNNY   43  36  76 N16G26    30.10R
PORT HOPE        N/A     46  37  71 N20G28    30.13R
PORT HURON     CLOUDY    45  41  87 N10G17    30.08R
TRI CITIES     MOSUNNY   50  35  56 NE16      30.16R
YPSILANTI      CLOUDY    49  37  63 N16       30.11R
$$
MIZ043>046-050>051-056>058-064>065-071>073-077>080-212200-
SOUTHWEST LOWER MICHIGAN

CITY           SKY/WX    TMP DP  RH WIND       PRES   REMARKS
BATTLE CREEK   CLOUDY    49  36  61 N13       30.15R
BENTON HARBOR  CLOUDY    49  39  68 N5        30.16R
BIG RAPIDS     SUNNY     52  37  56 N8        30.14S
COLDWATER      CLOUDY    48  38  69 N7        30.13R
HOLLAND        MOSUNNY   54  38  54 VRB5      30.17R
GRAND RAPIDS   MOSUNNY   51  37  58 N12       30.16R
KALAMAZOO      CLOUDY    48  39  71 N10       30.15R
MARSHALL       CLOUDY    47  37  68 N5        30.13R
MUSKEGON       MOSUNNY   55  35  47 N5        30.17R
$$
MIZ016>042-212200-
NORTHERN LOWER MICHIGAN

CITY           SKY/WX    TMP DP  RH WIND       PRES   REMARKS
ALPENA         SUNNY     45  31  58 N14G21    30.20R
BEAVER ISLAND  SUNNY     47  32  54 NE6       30.22S
BELLAIRE       SUNNY     50  25  38 N5        30.19F
CADILLAC       SUNNY     48  34  57 N8        30.15R
CHARLEVOIX     SUNNY     47  33  57 N10       30.24S
FRANKFORT      CLEAR     49  34  56 N7        30.20S
GAYLORD        SUNNY     46  26  45 N6        30.18R
GRAYLING       SUNNY     49  28  43 NE9       30.18R
HARBOR SPRINGS SUNNY     48  25  40 N9        30.21S
HOUGHTON LAKE  SUNNY     50  27  40 NE14      30.16R
MANISTEE       SUNNY     48  34  57 NW13      30.19R
OSCODA         MOSUNNY   46  32  59 N14       30.17R
PELLSTON       SUNNY     48  27  44 NE6       30.22R
TRAVERSE CITY  MOSUNNY   48  34  58 N9        30.18S
$$
MIZ007>008-015-212200-
EASTERN UPPER MICHIGAN

CITY           SKY/WX    TMP DP  RH WIND       PRES   REMARKS
KINROSS        SUNNY     46  32  57 NW9       30.22R
MACKINAC ISLAN SUNNY     47  29  49 N6        30.22R
NEWBERRY       SUNNY     43  32  63 NW8G20    30.22S
S. S. MARIE    SUNNY     48  26  42 N6        30.22R
$$
MIZ004>006-011>014-085-212200-
CENTRAL UPPER MICHIGAN

CITY           SKY/WX    TMP DP  RH WIND       PRES   REMARKS
MANISTIQUE     SUNNY     48  32  52 N9        30.23R
ESCANABA       SUNNY     50  25  37 N7        30.23S
MENOMINEE      SUNNY     50  36  57 SE8       30.22S
SAWYER-GWINN   SUNNY     41  32  70 NE12      30.26S
$$
MIZ001>003-009>011-084-212200-
WESTERN UPPER MICHIGAN

CITY           SKY/WX    TMP DP  RH WIND       PRES   REMARKS
IRON MOUNTAIN  SUNNY     51  29  42 N6        30.22S
HOUGHTON       SUNNY     44  32  62 E7        30.25S
COPPER HARBOR    N/A     42  32  67 E7        30.28S
IRONWOOD       SUNNY     46  36  66 S3        30.21S
$$

ABBREVIATIONS USED IN REMARKS
   TC - TEMPERATURE IN CELSIUS
  WCI - WIND CHILL INDEX
   HX - HEAT INDEX
  VSB - VISIBILITY




USA.gov is the U.S. government's official web portal to all federal, state and local government web resources and services.